sat.trackr.live / text

‹ back to catalog

STARLINK-3566

NORAD 51880 · 2022-022AE

PAYLOAD ACTIVE UNKNOWN

§ Identity

Operator
Country
US
Launch date
2022-03-03
Launch site
AFETR
Launch vehicle
Mass (kg)
RCS (m²)

Purposes: comms

External: N2YO · Heavens-Above · Gunter

§ Orbital elements

Epoch: 2026-09-20T03:55:21.732672Z

Period
94.41 min
Inclination
53.1587°
Eccentricity
0.0004135
Mean motion
15.25307856 rev/d
Perigee alt
487.0 km
Apogee alt
492.7 km
Semi-major
6,868.0 km
B*
6.1913e-4
RAAN
208.2990°
Arg perigee
57.6368°
Mean anomaly
302.5030°
Rev number
25,257

§ Raw data

STARLINK-35661 51880U 22022AE  26263.16344598  .00015490  00000+0  61913-3 0  99902 51880  53.1587 208.2990 0004135  57.6368 302.5030 15.25307856252577

JSON: /api/v1/satellites/51880 · /tle

For live sub-satellite position, see the globe view (requires WebGL).

§ Visibility from observer

Set your observer location to see the next 7 days of passes ≥ 10°. The values pass through the URL so the page stays shareable.

No JS? Fill the form by hand. The geolocation button needs JavaScript.